#timestamp,LO_Frequency,Hit,StdDev 
1617949375.9,286046954.3,P
1617949395.7,286046952.2,P
1617949415.6,286046951.7,P
1617949435.4,286046951.9,Y
1617949455.3,286046996.9,P
1617949475.1,286046999.6,N
1617949476.0,286046999.6,N
1617949495.8,286046997.0,N
1617949515.7,286046999.5,N
1617949535.5,286046996.6,N
1617949555.3,286046997.7,N
1617949575.2,286046997.1,N
1617949595.0,286046997.6,N
1617949595.9,286046997.6,N
1617949615.8,286046997.8,N
1617949635.6,286046995.6,N
1617949655.4,286046994.5,N
1617949675.3,286046993.4,N
1617949695.1,286046992.0,N
1617949715.8,286046990.5,N
1617949735.7,286046988.7,N
1617949755.5,286046987.0,N
1617949775.3,286046987.8,N
1617949795.2,286046988.4,N
1617949815.0,286046987.3,N
1617949815.9,286046987.3,N
1617949835.8,286046989.8,N
1617949855.6,286046987.7,N
1617949875.4,286046989.9,N
1617949895.3,286046988.0,N
1617949915.1,286046988.3,N
1617949935.8,286046986.3,N
1617949955.7,286046985.7,N
1617949975.5,286046986.4,N
1617949995.4,286046984.6,Y
1617950015.2,286046990.2,P
1617950035.0,286046990.6,P
1617950035.9,286046990.6,P
1617950055.8,286046991.3,Y
1617950075.6,286047000.8,P
1617950095.5,286046998.7,N
1617950115.3,286046999.4,N
1617950135.1,286046999.3,N
1617950155.9,286046997.4,N
1617950175.7,286046995.4,N
1617950195.5,286046997.4,N
1617950215.4,286046994.9,N
1617950235.2,286046996.3,N
1617950255.1,286046993.6,N
1617950256.0,286046993.6,N
1617950275.8,286046994.2,N
1617950295.6,286046994.5,N
1617950315.5,286046990.5,Y
1617950335.3,286046998.0,P
1617950355.1,286046993.8,P
1617950375.9,286046994.0,P
1617950395.7,286046995.9,N
1617950415.6,286046995.8,N
1617950435.4,286046994.3,Y
1617950455.2,286046999.1,P
1617950475.1,286046997.8,N
1617950476.0,286046997.8,N
1617950495.8,286046996.4,N
1617950515.7,286046996.0,Y
1617950535.5,286046999.0,P
1617950555.3,286046997.5,P
1617950575.2,286046996.3,P
1617950595.0,286046994.4,Y
1617950595.9,286046994.4,P
1617950615.7,286046996.4,N
1617950635.6,286046994.7,P
1617950655.4,286046992.0,Y
1617950675.3,286046997.3,P
1617950695.1,286046995.1,P
1617950715.8,286046995.6,P
1617950735.7,286046997.4,Y
1617950755.5,286047002.6,P
1617950775.4,286047001.2,N
1617950795.2,286046999.1,N
1617950815.0,286046996.7,N
1617950815.9,286046996.7,N
1617950835.8,286046996.1,N
1617950855.6,286046994.5,N
1617950875.4,286046992.4,N
1617950895.3,286046992.4,N
1617950915.1,286046992.6,N
1617950935.9,286046993.0,N
1617950955.7,286046991.3,N
1617950975.5,286046989.0,Y
1617950995.4,286046993.5,P
1617951015.2,286046994.5,P
1617951035.0,286046992.3,P
1617951035.9,286046992.3,Y
1617951055.8,286046997.2,P
1617951075.6,286046996.7,N
1617951095.5,286046999.4,N
1617951115.3,286046997.1,N
1617951135.1,286046995.2,N
1617951155.9,286046993.7,Y
1617951175.7,286046996.8,P
1617951195.6,286046995.7,P
1617951215.4,286046995.3,P
1617951235.2,286046993.4,Y
1617951255.1,286046996.5,P
1617951256.0,286046996.5,P
1617951275.8,286046997.4,P
1617951295.6,286046995.4,Y
1617951315.5,286047001.1,P
1617951335.3,286047000.5,N
1617951355.2,286046998.4,N
1617951375.9,286046996.8,N
1617951395.7,286046997.8,N
1617951415.6,286046995.6,N
1617951435.4,286046994.3,Y
1617951455.3,286046995.9,P
1617951475.1,286046993.7,P
1617951476.0,286046993.7,P
1617951495.8,286046991.9,Y
1617951515.7,286046998.0,P
1617951535.5,286046997.7,N
1617951555.3,286046995.4,P
1617951575.2,286046997.7,N
1617951595.0,286046995.8,Y
1617951595.9,286046995.8,P
